Regional Weather Roundup
Issued by NWS

Home | Current Version | Previous Version | Text Only | Print | Product List | Glossary On
Versions: 1 2 3 4 5 6 7 8 9 10 11 12 13 14 15 16 17 18 19 20 21 22 23 24 25 26 27 28 29 30 31 32 33 34 35 36 37 38 39 40 41 42 43 44 45 46 47 48 49 50
000
ASUS45 KPSR 232210
RWRAZ

ARIZONA HOURLY REGIONAL WEATHER ROUNDUP
NATIONAL WEATHER SERVICE PHOENIX AZ
300 PM MST FRI FEB 23 2018

NOTE: FAIR INDICATES FEW OR NO CLOUDS BELOW 12,000 FEET WITH NO
SIGNIFICANT WEATHER AND/OR OBSTRUCTIONS TO VISIBILITY.

AZZ001>003-036-232300-
NORTHWEST ARIZONA

CITY           SKY/WX    TMP DP  RH WIND       PRES   REMARKS
BULLHEAD CITY  MOSUNNY   57  18  21 N9        30.05F
KINGMAN        MOSUNNY   45  16  31 SW16G22   30.01F
$$

AZZ004>008-015-016-018-232300-
NORTH CENTRAL ARIZONA

CITY           SKY/WX    TMP DP  RH WIND       PRES   REMARKS
GRAND CANYON   LGT SNOW  25  16  68 SW10G23   29.92S WCI  15
PRESCOTT       CLOUDY    38  27  64 W21       29.97F WCI  28
FLAGSTAFF      SNOW      21  19  92 VRB5      29.92R VSB 1/4 WCI  15
PAGE           CLOUDY    38  22  52 SE9       29.94F WCI  31
$$

AZZ009>014-017-232300-
NORTHEAST ARIZONA

CITY           SKY/WX    TMP DP  RH WIND       PRES   REMARKS
WINSLOW        PTSUNNY   41  26  55 W20G28    29.95S
SAINT JOHNS    SUNNY     49   3  15 SW29G40   29.86F
WINDOW ROCK    PTSUNNY   40  13  33 SW17      29.87F WCI  31
$$

AZZ540-542>544-546-548-232300-
GREATER PHOENIX AREA

CITY           SKY/WX    TMP DP  RH WIND       PRES   REMARKS
PHOENIX        PTSUNNY   59  28  30 W12       30.01F
GLENDALE       PTSUNNY   59  25  27 SW16G22   30.04F
LUKE AFB       PTSUNNY   58  26  29 W20       30.01F
DEER VALLEY    CLOUDY    56  27  32 SW18G25   30.01F
SCOTTSDALE     PTSUNNY   57  28  33 W9G17     30.03F
MESA-FALCON    PTSUNNY   61  28  29 W13G23    30.02F
MESA-GATEWAY   PTSUNNY   61  27  27 W22G28    30.04F
CHANDLER       MOSUNNY   61  27  27 W15       30.02F
$$

AZZ539-553-232300-
SOUTHWEST MARICOPA COUNTY AND PINAL COUNTY

CITY           SKY/WX    TMP DP  RH WIND       PRES   REMARKS
CASA GRANDE      N/A     59  28  30 W13G20    30.02F
GILA BEND      PTSUNNY   61  24  24 W22G30    30.03F
$$

AZZ503-504-507>509-232300-
SOUTHEAST ARIZONA

CITY           SKY/WX    TMP DP  RH WIND       PRES   REMARKS
TUCSON         SUNNY     63  22  20 W13       30.00F
DAVIS-MONTHAN  SUNNY     62  23  22 NW8       29.98F
RYAN FIELD     SUNNY     63  21  20 W7G20     30.01F
NOGALES        SUNNY     61  16  17 SW17G23   30.03F
SIERRA VISTA   SUNNY     60   5  11 W21G30    30.01F
DOUGLAS        SUNNY     64   9  11 W21G28    29.99F
SAFFORD        SUNNY     61  15  16 W8        29.93F
$$

AZZ532-232300-
SOUTHWEST ARIZONA

CITY           SKY/WX    TMP DP  RH WIND       PRES   REMARKS
YUMA           MOSUNNY   62  31  31 W21G28    30.08F
$$

CAZ041-043-047-048-061-525>527-560>570-232300-
SOUTHERN CALIFORNIA

CITY           SKY/WX    TMP DP  RH WIND       PRES   REMARKS
DOWNTOWN L.A.  SUNNY     58  14  17 NW9G21    30.16F
L.A. AIRPORT   MOSUNNY   57  30  35 W20       30.18F
SAN DIEGO      MOSUNNY   57  33  40 NW15G22   30.21F
BURBANK        SUNNY     56  14  19 NW21G29   30.15S
ONTARIO        MOSUNNY   56  21  25 VRB3      30.12F
RIVERSIDE      MOSUNNY   57  19  22 W9        30.13F
PALM SPRINGS   SUNNY     62  20  19 S6        30.08F
EL CENTRO NAS  MOSUNNY   63  17  17 W20G32    30.11F
IMPERIAL       SUNNY     63  23  21 W16       30.08F
BLYTHE         CLOUDY    59  24  26 CALM      30.07F
NEEDLES        MOSUNNY   60  12  15 MISG      30.04F
$$

NVZ020-UTZ003-232300-
SOUTHERN NEVADA-UTAH

CITY           SKY/WX    TMP DP  RH WIND       PRES   REMARKS
LAS VEGAS      PTSUNNY   43  25  49 S9G21     30.07S
SALT LAKE CITY LGT SNOW  26  20  77 NW15      30.08R WCI  14
$$

NMZ009-TXZ055-232300-
NEW MEXICO-WEST TEXAS

CITY           SKY/WX    TMP DP  RH WIND       PRES   REMARKS
ALBUQUERQUE    MOSUNNY   56  11  16 S18G30    29.85F
EL PASO        MOSUNNY   66  12  12 SW13G21   29.95F
$$


........................KEY........................
SKY/WX - SKY CONDITION/WEATHER
TMP    - TEMPERATURE IN FAHRENHEIT
DP     - DEW POINT IN FAHRENHEIT
RH     - RELATIVE HUMIDITY IN PERCENT
WIND   - DIRECTION AND SPEED IN MILES PER HOUR (MPH)
VRB    - VARIABLE WIND DIRECTION
PRES   - MEAN SEA LEVEL PRESSURE IN INCHES OF MERCURY
         F - FALLING PRESSURE   R - RISING PRESSURE
         S - STEADY PRESSURE
VSB    - VISIBILITY IN MILES
HX     - HEAT INDEX IN FAHRENHEIT
WCI    - WIND CHILL INDEX IN FAHRENHEIT
TC     - TEMPERATURE IN CELSIUS WHICH IS ALSO KNOWN AS
         TEMPERATURE IN CENTIGRADE
AFB    - AIR FORCE BASE
         LUKE AFB IS LUKE AIR FORCE BASE
         DAVIS-MONTHAN IS DAVIS-MONTHAN AIR FORCE BASE
NAS    - NAVAL AIR STATION
         EL CENTRO NAS IS EL CENTRO NAVAL AIR STATION
N/A    - NOT AVAILABLE




USA.gov is the U.S. government's official web portal to all federal, state and local government web resources and services.